Regional & State Weather Roundups


727 
ASUS43 KLOT 200308
RWRIL 
ILLINOIS REGIONAL WEATHER ROUNDUP
NATIONAL WEATHER SERVICE CHICAGO/ROMEOVILLE IL
900 PM CST MON FEB 19 2018
NOTE: "FAIR" INDICATES FEW OR NO CLOUDS BELOW 12,000 FEET WITH NO
SIGNIFICANT WEATHER AND/OR OBSTRUCTIONS TO VISIBILITY.
* THESE STATIONS ARE NOT UNDER NWS QUALITY CONTROL. THEY ALSO MAY NOT
  REPORT WEATHER SUCH AS PRECIPITATION OR FOG.
ILZ001-002-007-009-015-016-024-200400-
NORTHWEST ILLINOIS
  
CITY           SKY/WX    TMP DP  RH WIND       PRES   REMARKS
MOLINE         LGT RAIN  51  50  96 W9        29.75R FOG              
STERLING*      LGT RAIN  55  54  96 MISG        N/A  FOG              
SAVANNA*       CLOUDY    48  48 100 SW5       29.76R                  
$$
ILZ003-004-008-010-011-017-018-200400-
NORTH CENTRAL ILLINOIS
  
CITY           SKY/WX    TMP DP  RH WIND       PRES   REMARKS
ROCKFORD       LGT RAIN  48  47  96 S12       29.78S VSB 1/8          
FREEPORT*      FOG       48  48 100 SW17      29.77R VSB 1/2          
ROCHELLE*      CLOUDY    46  46 100 S13       29.79S VSB<1/4          
DE KALB*       CLOUDY    47  47 100 S13       29.80S VSB 1/4          
PERU*          TSTM      56  55  94 S16       29.79F                  
$$
ILZ005-006-012>014-019>023-200400-
NORTHEAST ILLINOIS
  
CITY           SKY/WX    TMP DP  RH WIND       PRES   REMARKS
CHICAGO-OHARE  LGT RAIN  57  54  89 S20G25    29.81R                  
CHICAGO-MIDWAY LGT RAIN  58  56  93 S17G25    29.82F                  
AURORA         RAIN      50  50 100 S13       29.81R VSB 1/4          
LANSING*       RAIN      56  56 100 S13       29.86R                  
JOLIET*        TSTM      60  59  96 S15G23    29.85R                  
WAUKEGAN       CLOUDY    56  55  97 S16G28    29.79S                  
DUPAGE AIRPORT CLOUDY    54  54 100 S13       29.80S FOG              
KANKAKEE*      TSTM      58  58  97 SW8G21    29.87S                  
WHEELING       LGT RAIN  58  57  97 S15G24    29.81S                  
MORRIS*        TSTM      57  56  97 S18G29    29.83R                  
ROMEOVILLE*    TSTM      57  55  95 SW25G31   29.83R                  
NORTHERLY ISL    N/A     58  55  90 S17         N/A                   
$$
LMZ740>746-200400-
SOUTHERN LAKE MICHIGAN
  
STATION/POSITION SKY/WX   TEMP    WIND        PRES    VSBY  WAVE
                          AIR SEA DIR/SP/G                  HT/PER
                          (F)     (DEG/KT/KT) (MB)    (MI)  (FT/S)
HARRISON CRIB              56     200/ 27/ 29   N/A
BURNHAM HARBOR             58     170/ 17/ 20   N/A
CALUMET HARBOR             58     180/ 14/ 19 1009.7F
BURNS HARBOR               58     190/ 17/ 23 1011.5S
MICHIGAN CITY              58     170/ 15/ 20   N/A
$$
ILZ025>027-034>036-040-047-049-050-058-095>099-200400-
WEST-CENTRAL ILLINOIS
  
CITY           SKY/WX    TMP DP  RH WIND       PRES   REMARKS
QUINCY         LGT RAIN  62  57  83 S17       29.76R                  
GALESBURG*     RAIN      59  59  99 S16G22    29.77R                  
MACOMB*        CLOUDY    60  59  96 W6        29.80S                  
JACKSONVILLE*  CLOUDY    63  56  79 S16G26    29.80S                  
PITTSFIELD*    CLOUDY    64  58  79 S21G26    29.81R                  
$$
ILZ028>032-037-038-041>044-048-051>054-059>061-200400-
CENTRAL ILLINOIS
  
CITY           SKY/WX    TMP DP  RH WIND       PRES   REMARKS
PONTIAC        TSTM      60  59  98 S15       29.82F                  
BLOOMINGTON    CLOUDY    61  57  87 S31G38    29.81F                  
DECATUR        CLOUDY    64  58  80 S20G28    29.86F                  
PEORIA         TSTM      59  57  93 NW8       29.82R FOG              
LACON*         TSTM      58  58  99 S10       29.81R                  
LINCOLN*       CLOUDY    64  60  87 S22G30    29.82R                  
SPRINGFIELD    FAIR      65  59  81 S25G37    29.82R                  
TAYLORVILLE    CLOUDY    63  58  85 S20G26    29.87R                  
$$
ILZ033-039-045-046-055>057-062-063-200400-
EAST-CENTRAL ILLINOIS
  
CITY           SKY/WX    TMP DP  RH WIND       PRES   REMARKS
CHAMPAIGN      CLOUDY    61  58  90 S23G30    29.88S                  
DANVILLE*      CLOUDY    61  58  87 S16G24    29.88S                  
RANTOUL*       CLOUDY    64  60  88 S23G29    29.87F                  
MATTOON        CLOUDY    62  56  80 S13G23    29.91S                  
PARIS*         FAIR      61  57  87 S17G24    29.93F                  
$$
ILZ079-100>102-200400-
SOUTHWEST ILLINOIS
  
CITY           SKY/WX    TMP DP  RH WIND       PRES   REMARKS
ALTON          LGT RAIN  64  59  82 S16       29.88R                  
BELLEVILLE     MOCLDY    66  60  79 S17       29.89R                  
CAHOKIA*       CLOUDY    68  57  68 S16G28    29.87S                  
SPARTA*        CLOUDY    67  63  85 S18       29.95S                  
$$
ILZ064>066-069>071-074>076-080>082-084>086-088>090-092>094-200400-
SOUTH-CENTRAL ILLINOIS
  
CITY           SKY/WX    TMP DP  RH WIND       PRES   REMARKS
CARBONDALE     FAIR      67  59  75 S18G29    29.95F                  
CAIRO*         FAIR      65  56  72 SE7       30.01S                  
EFFINGHAM*     CLOUDY    66  59  77 SE15G23   29.95S                  
MARION         FAIR      66  57  73 S18       29.98S                  
MT. VERNON     CLOUDY    66  59  78 S14       29.97R                  
CENTRALIA*     CLOUDY    68  61  77 S21       29.94R                  
SALEM*         MOCLDY    68  59  73 S14G20    29.94R                  
METROPOLIS*    FAIR      67  57  69 S6        30.03S                  
$$
ILZ067-068-072-073-078-083-087-091-200400-
SOUTHEAST ILLINOIS
  
CITY           SKY/WX    TMP DP  RH WIND       PRES   REMARKS
LAWRENCEVILLE  FAIR      66  56  70 S22       29.98F                  
FLORA*         FAIR      64  57  78 S12       29.97R                  
FAIRFIELD*     FAIR      64  56  75 S10       29.97R                  
HARRISBURG*    FAIR      68  58  70 S14G23    30.00S                  
ROBINSON*      FAIR      64  55  72 S15G21    29.97S                  
CARMI*         FAIR      64  57  79 S15       29.99S                  
$$
ABBREVIATIONS USED IN REMARKS
   TC - TEMPERATURE IN CELSIUS
  WCI - WIND CHILL INDEX
   HX - HEAT INDEX
  VSB - VISIBILITY
$$